This is the latest recevied weather packets stored in our database for station/object DG4MJS-10. If no packets are shown the sender has not sent any weather packets the latest 10 day(s).
| Time | Temp. | Humidity | Pressure | Rain* | Wind** | Luminosity | Snow |
|---|---|---|---|---|---|---|---|
| 1777594498 | 10° C | 39% | 1025.3 hPa | - | - | - | - |
| 1777593597 | 10.56° C | 38% | 1025.3 hPa | - | - | - | - |
| 1777592697 | 10° C | 38% | 1025.5 hPa | - | - | - | - |
| 1777591797 | 10.56° C | 38% | 1025.7 hPa | - | - | - | - |
| 1777590897 | 10.56° C | 39% | 1025.5 hPa | - | - | - | - |
| 1777589997 | 10.56° C | 39% | 1025.5 hPa | - | - | - | - |
| 1777589097 | 10.56° C | 37% | 1025.5 hPa | - | - | - | - |
| 1777588196 | 11.11° C | 38% | 1025.5 hPa | - | - | - | - |
| 1777587298 | 11.11° C | 37% | 1025.5 hPa | - | - | - | - |
| 1777586398 | 11.11° C | 37% | 1025.4 hPa | - | - | - | - |
| 1777585498 | 11.11° C | 37% | 1025.4 hPa | - | - | - | - |
| 1777584598 | 11.11° C | 38% | 1025.3 hPa | - | - | - | - |
| 1777583698 | 11.67° C | 36% | 1025.4 hPa | - | - | - | - |
| 1777582798 | 11.67° C | 36% | 1025.4 hPa | - | - | - | - |
| 1777581898 | 11.67° C | 38% | 1025.3 hPa | - | - | - | - |
| 1777580997 | 12.22° C | 36% | 1025.3 hPa | - | - | - | - |
| 1777580097 | 12.22° C | 36% | 1025.1 hPa | - | - | - | - |
| 1777579197 | 12.22° C | 35% | 1025 hPa | - | - | - | - |
| 1777578297 | 12.78° C | 34% | 1025 hPa | - | - | - | - |
| 1777577397 | 12.78° C | 33% | 1024.8 hPa | - | - | - | - |
| 1777576497 | 13.33° C | 33% | 1024.7 hPa | - | - | - | - |
| 1777575597 | 13.33° C | 33% | 1024.5 hPa | - | - | - | - |
| 1777574697 | 13.89° C | 32% | 1024.4 hPa | - | - | - | - |
| 1777573797 | 14.44° C | 29% | 1024.3 hPa | - | - | - | - |
| 1777572897 | 15° C | 27% | 1024.1 hPa | - | - | - | - |
* Rain since midnight (hover to see other rain measurements)
** Current wind speed in m/s (hover to see current wind gust speed)